Погода в Белогорье

Украина / Хмельницкая область     50°00′05″N   26°24′42″E
темп.,
°C
ветер,
м/с
пор.,
м/с
влажн.,
%
обл.,
%
осадки,
мм/ч
давл.,
гПа
погр.,
м
28 июня, вт
вт2800:00+19всв348896 0.0 102158
03:00+18всв348753 0.0 102060
06:00+17вюв22866 0.0 102128
09:00+23юв2369100 0.0 1021320
12:00+27вюв345365 0.0 10201576
15:00+29вюв3544100 0.0 10192324
18:00+26ссв3463100 0.0 101973
21:00+23ссв2275100 0.0 101924
29 июня, ср
ср2900:00+21всв337588 0.0 101931
03:00+20всв237841 0.0 101930
06:00+19вюв22825 0.0 101925
09:00+25юв34685 0.0 1018279
12:00+29вюв335113 0.0 10181309
15:00+30вюв224453 0.0 10172266
18:00+29сз325422 0.0 1016614
21:00+21вюв238693 0.2 101643
30 июня, чт
чт3000:00+20вюв4782100 0.1 1016100
03:00+17юв229234 0.1 101620
06:00+18вюв228745 0.0 101624
09:00+23в45735 0.0 1016370
12:00+27в44595 0.0 1017903
15:00+28в445410 0.0 10161428
18:00+28в445710 0.0 10161485
21:00+23в48755 0.1 1016160
1 июля, пт
пт100:00+20вюв4127772 0.0 1018294
03:00+18юв512785 0.0 1019254
06:00+16вюв510801 0.0 1019201
09:00+21юв69656 0.0 1019469
12:00+25юв67535 0.0 10191251
15:00+27юв56440 0.0 10181626
18:00+27вюв46500 0.0 10181424
21:00+21в410710 0.0 1019180
2 июля, сб
сб200:00+19вюв4116976 0.0 1019180
03:00+17юв4116353 0.0 1019186
06:00+16ююв41167100 0.0 1020206
09:00+22ююв58561 0.0 1020338
12:00+27ююв564434 0.0 10201013
15:00+29юв443686 0.0 10191769
18:00+29вюв334565 0.0 10181110
21:00+22вюв4766100 0.0 1019102